#timestamp,LO_Frequency,Hit,StdDev 
1580781615.1,286047000.4,N
1580781635.1,286046998.1,N
1580781636.0,286046998.1,N
1580781655.8,286046999.5,N
1580781675.6,286046998.3,N
1580781695.5,286046997.3,N
1580781715.3,286046999.1,N
1580781735.2,286047001.0,N
1580781755.9,286046998.9,N
1580781775.7,286046999.2,N
1580781795.6,286047001.0,N
1580781815.4,286047000.3,N
1580781835.2,286046998.8,N
1580781855.1,286046999.2,N
1580781856.0,286046999.2,N
1580781875.8,286046999.3,N
1580781895.7,286046998.3,N
1580781915.5,286046996.8,N
1580781935.3,286046998.4,N
1580781955.2,286047000.0,N
1580781975.0,286047002.2,N
1580781975.9,286047002.2,N
1580781995.8,286046999.9,N
1580782015.6,286047001.4,N
1580782035.4,286047002.0,N
1580782055.3,286047002.5,N
1580782075.1,286047002.6,N
1580782095.9,286047001.0,N
1580782115.7,286047002.4,N
1580782135.5,286046998.6,N
1580782155.4,286047001.2,N
1580782175.2,286047001.2,N
1580782195.1,286046999.8,N
1580782196.0,286046999.8,N
1580782215.8,286047001.1,N
1580782235.6,286046999.3,N
1580782255.5,286046998.6,N
1580782275.3,286046998.7,N
1580782295.1,286046997.7,N
1580782315.9,286046996.5,N
1580782335.7,286046996.5,N
1580782355.6,286046998.5,N
1580782375.4,286046999.8,N
1580782395.2,286047001.0,N
1580782415.1,286047000.8,N
1580782416.0,286047000.8,N
1580782435.8,286047001.1,N
1580782455.7,286046998.7,N
1580782475.5,286047000.8,N
1580782495.3,286047002.3,N
1580782515.2,286047004.0,N
1580782535.0,286047004.7,N
1580782535.9,286047004.7,N
1580782555.7,286047004.4,N
1580782575.6,286047004.1,N
1580782595.4,286047003.3,N
1580782615.3,286047004.1,N
1580782635.1,286047001.3,N
1580782636.0,286047001.3,N
1580782655.8,286047002.5,N
1580782675.7,286047000.4,N
1580782695.5,286046999.1,N
1580782715.4,286046999.3,N
1580782735.2,286046996.9,N
1580782755.0,286046996.6,N
1580782755.9,286046996.6,N
1580782775.8,286046999.5,N
1580782795.6,286046999.5,N
1580782815.5,286046997.3,N
1580782835.3,286046996.6,N
1580782855.1,286046995.4,N
1580782875.9,286046997.9,N
1580782895.7,286046999.5,N
1580782915.6,286047001.2,N
1580782935.4,286047002.0,N
1580782955.2,286047001.4,N
1580782975.1,286047000.6,N
1580782976.0,286047000.6,N
1580782995.8,286046998.9,N
1580783015.8,286046998.8,N
1580783035.7,286046999.4,N
1580783055.5,286046995.8,N
1580783075.4,286046992.1,Y
1580783095.2,286046994.8,P
1580783115.0,286046993.9,N
1580783115.9,286046993.9,N
1580783135.8,286046995.3,N
1580783155.6,286046997.2,N
1580783175.4,286046997.5,N
1580783195.3,286046997.1,N
1580783215.1,286046996.6,N
1580783235.9,286046995.0,N
1580783255.7,286046996.8,N
1580783275.5,286046998.9,N
1580783295.4,286046997.5,N
1580783315.2,286046996.9,N
1580783335.0,286047000.8,N
1580783336.0,286047000.8,N
1580783355.8,286046996.5,N
1580783375.6,286047001.0,N
1580783395.5,286046999.7,N
1580783415.3,286046999.9,N
1580783435.1,286047002.6,N
1580783455.9,286047002.7,N
1580783475.7,286046999.7,N
1580783495.6,286047002.6,N
1580783515.4,286046998.5,N
1580783535.2,286046998.3,N
1580783555.1,286046998.7,N
1580783556.0,286046998.7,N
1580783575.8,286046999.6,N
1580783595.7,286046999.3,N
1580783615.5,286047000.3,N
1580783635.3,286047002.6,N
1580783655.2,286047000.2,N
1580783675.0,286047000.2,N
1580783675.9,286047000.2,N
1580783695.7,286046998.2,N
1580783715.6,286046998.9,N
1580783735.4,286046998.8,N
1580783755.3,286046998.8,N
1580783775.1,286046996.9,N
1580783776.0,286046996.9,N
1580783795.8,286046997.5,N
1580783815.7,286046997.0,N
1580783835.5,286046997.8,N
1580783855.3,286046997.2,N
1580783875.2,286046997.5,N
1580783895.0,286046996.4,N
1580783895.9,286046996.4,N
1580783915.8,286046993.9,Y
1580783935.6,286046993.6,P
1580783955.4,286046994.6,N
1580783975.3,286046995.6,N
1580783995.1,286046995.0,N
1580784015.9,286046995.4,N
1580784035.7,286046995.8,N
1580784055.5,286046995.6,N
1580784075.4,286046995.3,Y
1580784095.2,286047000.9,P
1580784115.1,286046998.1,N
1580784116.0,286046998.1,N
1580784135.8,286046998.3,N
1580784155.6,286046998.2,N
1580784175.5,286046998.2,N
1580784195.3,286046998.7,N
1580784215.1,286046999.6,N
1580784235.9,286046998.9,N
1580784255.7,286047001.2,N
1580784275.6,286047001.2,N
1580784295.4,286046999.6,N
1580784315.2,286046996.8,N
1580784335.1,286046996.9,N
1580784336.0,286046996.9,N
1580784355.8,286046996.9,N
1580784375.6,286046997.3,N
1580784395.5,286046996.6,N
1580784415.3,286046997.4,N
1580784435.2,286046997.9,N
1580784455.9,286046997.8,N
1580784475.7,286046996.8,N
1580784495.6,286046999.3,N
1580784515.4,286046999.4,N
1580784535.2,286046998.9,N
1580784555.1,286046997.9,N
1580784556.0,286046997.9,N
1580784575.8,286046995.6,Y
1580784595.7,286046997.2,P
1580784615.5,286046997.2,P
1580784635.3,286046994.9,P
1580784655.2,286046995.8,Y
1580784675.0,286046997.0,P
1580784675.9,286046997.0,P
1580784695.8,286046995.0,P
1580784715.6,286046995.3,Y
1580784735.4,286047000.1,P
1580784755.3,286047002.8,N
1580784775.1,286047000.0,N
1580784795.8,286047000.7,N
1580784815.7,286046998.5,N
1580784835.5,286046998.8,N
1580784855.4,286046998.1,N
1580784875.2,286046998.8,N
1580784895.0,286046998.2,N
1580784895.9,286046998.2,N
1580784915.8,286047001.2,N
1580784935.6,286046998.7,N
1580784955.4,286046999.4,N
1580784975.3,286046999.6,N
1580784995.1,286046999.0,N
1580785015.9,286046998.7,N
1580785035.7,286047000.4,N
1580785055.5,286046998.1,N
1580785075.4,286046998.2,N
1580785095.2,286046998.9,N
1580785115.1,286046998.7,N
1580785116.0,286046998.7,N
1580785135.8,286046996.6,N
1580785155.6,286046998.9,N
1580785175.5,286047000.1,N
1580785195.3,286047000.8,N
